Stündliche Wetter Kyusyur

Heute, 8 Mai, Samstag

Zeit Temperatur Niederschläge Wind Luftdruck Luftfeuchtigkeit
00:00 -4°C° 0.1 mm 1 m/S 756 mmHg 95%
01:00 -4°C° 0.1 mm 1 m/S 757 mmHg 96%
02:00 -4°C° 0 mm 1 m/S 757 mmHg 96%
03:00 -4°C° 0.1 mm 1 m/S 757 mmHg 96%
04:00 -3°C° 0.1 mm 1 m/S 757 mmHg 95%
05:00 -3°C° 0.1 mm 1 m/S 757 mmHg 95%
06:00 -2°C° 0 mm 1 m/S 757 mmHg 93%
07:00 -3°C° 0 mm 0 m/S 757 mmHg 91%
08:00 -2°C° 0 mm 0 m/S 757 mmHg 90%
09:00 -2°C° 0 mm 0 m/S 757 mmHg 89%
10:00 -1°C° 0 mm 0 m/S 757 mmHg 89%
11:00 -1°C° 0 mm 0 m/S 757 mmHg 88%
12:00 -1°C° 0 mm 0 m/S 757 mmHg 87%
13:00 +1°C° 0 mm 1 m/S 757 mmHg 86%
14:00 +1°C° 0 mm 1 m/S 757 mmHg 85%
15:00 0°C° 0 mm 0 m/S 757 mmHg 85%
16:00 +1°C° 0 mm 0 m/S 757 mmHg 84%
17:00 +1°C° 0 mm 0 m/S 757 mmHg 84%
18:00 0°C° 0 mm 0 m/S 757 mmHg 86%
19:00 0°C° 0 mm 1 m/S 757 mmHg 89%
20:00 -1°C° 0 mm 1 m/S 756 mmHg 91%
21:00 -2°C° 0 mm 1 m/S 756 mmHg 91%
22:00 -3°C° 0 mm 1 m/S 756 mmHg 91%
23:00 -3°C° 0 mm 1 m/S 756 mmHg 92%

Morgen, 9 Mai, Sonntag

Zeit Temperatur Niederschläge Wind Luftdruck Luftfeuchtigkeit
00:00 -3°C° 0 mm 1 m/S 756 mmHg 92%
01:00 -3°C° 0 mm 1 m/S 755 mmHg 92%
02:00 -3°C° 0 mm 1 m/S 755 mmHg 91%
03:00 -3°C° 0 mm 1 m/S 755 mmHg 90%
04:00 -2°C° 0 mm 1 m/S 755 mmHg 88%
05:00 -1°C° 0 mm 1 m/S 754 mmHg 86%
06:00 0°C° 0 mm 1 m/S 754 mmHg 84%
07:00 +1°C° 0 mm 1 m/S 754 mmHg 83%
08:00 +2°C° 0 mm 1 m/S 753 mmHg 81%
09:00 +2°C° 0 mm 1 m/S 753 mmHg 82%
10:00 +1°C° 0 mm 2 m/S 753 mmHg 83%
11:00 +2°C° 0 mm 2 m/S 753 mmHg 85%
12:00 +1°C° 0.2 mm 2 m/S 753 mmHg 88%
13:00 +1°C° 0.2 mm 2 m/S 753 mmHg 92%
14:00 0°C° 0.2 mm 3 m/S 753 mmHg 95%
15:00 +1°C° 0.4 mm 2 m/S 753 mmHg 96%
16:00 +1°C° 0.4 mm 2 m/S 753 mmHg 97%
17:00 +1°C° 0.4 mm 2 m/S 753 mmHg 98%
18:00 -1°C° 0.5 mm 2 m/S 754 mmHg 98%
19:00 -1°C° 0.5 mm 2 m/S 754 mmHg 98%
20:00 -1°C° 0.5 mm 2 m/S 754 mmHg 98%
21:00 -2°C° 0.2 mm 2 m/S 754 mmHg 97%
22:00 -2°C° 0.2 mm 2 m/S 755 mmHg 97%
23:00 -3°C° 0.2 mm 2 m/S 755 mmHg 97%

übermorgen, 10 Mai, Montag

Zeit Temperatur Niederschläge Wind Luftdruck Luftfeuchtigkeit
00:00 -3°C° 0 mm 2 m/S 755 mmHg 95%
01:00 -4°C° 0 mm 3 m/S 755 mmHg 94%
02:00 -4°C° 0 mm 3 m/S 756 mmHg 93%
03:00 -4°C° 0 mm 3 m/S 756 mmHg 91%
04:00 -4°C° 0 mm 4 m/S 756 mmHg 89%
05:00 -3°C° 0 mm 4 m/S 756 mmHg 87%
06:00 -4°C° 0 mm 5 m/S 757 mmHg 85%
07:00 -4°C° 0 mm 5 m/S 757 mmHg 83%
08:00 -4°C° 0 mm 6 m/S 758 mmHg 81%
09:00 -4°C° 0 mm 6 m/S 758 mmHg 81%
10:00 -4°C° 0 mm 7 m/S 758 mmHg 81%
11:00 -5°C° 0 mm 8 m/S 759 mmHg 82%
12:00 -5°C° 0 mm 8 m/S 759 mmHg 81%
13:00 -5°C° 0 mm 8 m/S 759 mmHg 80%
14:00 -5°C° 0 mm 8 m/S 759 mmHg 79%
15:00 -5°C° 0 mm 8 m/S 760 mmHg 80%
16:00 -4°C° 0 mm 7 m/S 760 mmHg 81%
17:00 -4°C° 0 mm 7 m/S 760 mmHg 82%
18:00 -4°C° 0 mm 6 m/S 761 mmHg 83%
19:00 -4°C° 0 mm 6 m/S 761 mmHg 84%
20:00 -5°C° 0 mm 6 m/S 761 mmHg 86%
21:00 -6°C° 0 mm 6 m/S 761 mmHg 86%
22:00 -6°C° 0 mm 5 m/S 761 mmHg 87%
23:00 -7°C° 0 mm 5 m/S 761 mmHg 87%

11 Mai, Dienstag

Zeit Temperatur Niederschläge Wind Luftdruck Luftfeuchtigkeit
00:00 -7°C° 0 mm 5 m/S 762 mmHg 87%
01:00 -8°C° 0 mm 5 m/S 762 mmHg 87%
02:00 -8°C° 0 mm 5 m/S 762 mmHg 86%
03:00 -8°C° 0 mm 4 m/S 762 mmHg 86%
04:00 -8°C° 0 mm 4 m/S 762 mmHg 86%
05:00 -8°C° 0 mm 4 m/S 762 mmHg 86%
06:00 -8°C° 0 mm 5 m/S 762 mmHg 83%
07:00 -7°C° 0 mm 5 m/S 762 mmHg 81%
08:00 -7°C° 0 mm 5 m/S 762 mmHg 79%
09:00 -6°C° 0 mm 6 m/S 762 mmHg 78%
10:00 -7°C° 0 mm 7 m/S 762 mmHg 77%
11:00 -6°C° 0 mm 8 m/S 761 mmHg 76%
12:00 -6°C° 0 mm 8 m/S 761 mmHg 76%
13:00 -6°C° 0 mm 8 m/S 761 mmHg 76%
14:00 -6°C° 0 mm 8 m/S 761 mmHg 76%
15:00 -6°C° 0 mm 8 m/S 761 mmHg 76%
16:00 -6°C° 0 mm 8 m/S 761 mmHg 77%
17:00 -7°C° 0 mm 8 m/S 761 mmHg 78%
18:00 -7°C° 0 mm 7 m/S 761 mmHg 79%
19:00 -8°C° 0 mm 7 m/S 761 mmHg 80%
20:00 -8°C° 0 mm 7 m/S 761 mmHg 81%
21:00 -9°C° 0 mm 7 m/S 760 mmHg 82%
22:00 -9°C° 0 mm 7 m/S 760 mmHg 83%
23:00 -11°C° 0 mm 7 m/S 760 mmHg 84%

12 Mai, Mittwoch

Zeit Temperatur Niederschläge Wind Luftdruck Luftfeuchtigkeit
00:00 -11°C° 0 mm 7 m/S 759 mmHg 83%
01:00 -11°C° 0 mm 7 m/S 759 mmHg 83%
02:00 -11°C° 0 mm 7 m/S 759 mmHg 83%
03:00 -11°C° 0 mm 7 m/S 758 mmHg 82%
04:00 -11°C° 0 mm 7 m/S 758 mmHg 80%
05:00 -9°C° 0 mm 7 m/S 757 mmHg 79%
06:00 -9°C° 0 mm 7 m/S 757 mmHg 77%
07:00 -8°C° 0 mm 7 m/S 757 mmHg 76%
08:00 -8°C° 0 mm 7 m/S 757 mmHg 74%
09:00 -7°C° 0 mm 7 m/S 756 mmHg 73%
10:00 -7°C° 0 mm 7 m/S 756 mmHg 72%
11:00 -6°C° 0 mm 7 m/S 755 mmHg 71%
12:00 -6°C° 0 mm 7 m/S 755 mmHg 70%
13:00 -6°C° 0 mm 7 m/S 755 mmHg 70%
14:00 -5°C° 0 mm 6 m/S 754 mmHg 70%
15:00 -5°C° 0 mm 6 m/S 754 mmHg 71%
16:00 -5°C° 0 mm 6 m/S 754 mmHg 72%
17:00 -5°C° 0 mm 5 m/S 754 mmHg 73%
18:00 -5°C° 0 mm 4 m/S 753 mmHg 75%
19:00 -6°C° 0 mm 3 m/S 753 mmHg 78%
20:00 -6°C° 0 mm 2 m/S 753 mmHg 80%
21:00 -7°C° 0 mm 2 m/S 753 mmHg 82%
22:00 -8°C° 0 mm 2 m/S 753 mmHg 85%
23:00 -9°C° 0 mm 2 m/S 752 mmHg 87%

13 Mai, Donnerstag

Zeit Temperatur Niederschläge Wind Luftdruck Luftfeuchtigkeit
00:00 -10°C° 0 mm 2 m/S 752 mmHg 87%
01:00 -9°C° 0 mm 1 m/S 752 mmHg 88%
02:00 -9°C° 0 mm 1 m/S 752 mmHg 88%
03:00 -8°C° 0 mm 1 m/S 752 mmHg 85%
04:00 -7°C° 0 mm 1 m/S 751 mmHg 83%
05:00 -7°C° 0 mm 1 m/S 751 mmHg 80%
06:00 -4°C° 0 mm 1 m/S 751 mmHg 77%
07:00 -5°C° 0 mm 2 m/S 751 mmHg 74%
08:00 -3°C° 0 mm 2 m/S 750 mmHg 71%
09:00 -4°C° 0 mm 3 m/S 750 mmHg 68%
10:00 -2°C° 0 mm 3 m/S 750 mmHg 66%
11:00 -2°C° 0 mm 4 m/S 750 mmHg 63%
12:00 -1°C° 0 mm 3 m/S 750 mmHg 61%
13:00 0°C° 0 mm 3 m/S 750 mmHg 59%
14:00 0°C° 0 mm 3 m/S 750 mmHg 58%
15:00 0°C° 0 mm 3 m/S 750 mmHg 58%
16:00 +2°C° 0 mm 2 m/S 749 mmHg 58%
17:00 +2°C° 0 mm 2 m/S 749 mmHg 58%
18:00 +1°C° 0 mm 2 m/S 749 mmHg 60%
19:00 +1°C° 0 mm 2 m/S 749 mmHg 62%
20:00 +1°C° 0 mm 2 m/S 749 mmHg 64%
21:00 -1°C° 0 mm 2 m/S 749 mmHg 69%
22:00 -1°C° 0 mm 2 m/S 749 mmHg 74%
23:00 -1°C° 0 mm 2 m/S 749 mmHg 79%
Mehr zeigen

Wir brauchen deine Erlaubnis

Meteoprog und unser Service Anbieter werden persönliche Daten aufbewahren, so wie Cookies, Geräte Bezeichnung oder ähnliche Technologien von deinem Gerät und Prozess, so wie Persönliche Daten Inhalte und Werbungen, genauso wie social Media und den Verkehr zu analysieren.

  • Aufbewahrung und/oder Zugang zu deiner Geräte Informationen.

    Cookies, Geräte Bezeichnung oder andere Informationen, können aufbewahrt oder Zugang zu deinem Gerät erhalten, für den Grund, der oben angegeben wird.

  • Personalisierte Werbung und Inhalte, Messungen, Einblick in das Publikum und Produkt Entwicklung.

    Werbungen und Inhalte können personalisiert werden, basierend auf ein Profil. Mehr Daten können besser personalisierte Werbungen und Inhalte hinzufügen. Werbung und Inhalte können gezeigt und gemessen werden. Einblicke über das Publikum, welche die Werbung gesehen haben und den Inhalt, können abgeleitet werden. So wie Daten können genutzt werden, um es zu verbessern oder die Benutzer Erfahrung zu verbessern das System und die Software.

Wenn du “Ich stimme zu” klickst, erlaubst du uns, die Cookies zu benutzen die Geräte Bezeichnung, den Web oder ähnliche Technologien zu benutzen. Deine Settings, können in deinem Gerät bei deinem Browser geändert werden.

Für den bestimmten Zweck, berechtigten Interessen beruhen darauf, mehr als auf den Inhalt. Du kannst mehr darüber in unseren Privaten und Cookie Politik lesen.